Find Local Weather

World > North America > United States > Ohio

Dublin, Ohio Regional Weather

Lat: 40.12N, Lon: 83.13W
Wx Zone: OHZ055
Warning FLW WEATHER ALERT - (More Info. Click Here) Warning
Feedback

Dublin, OH Regional Weather

Expires:201905261500;;491977
ASUS41 KCLE 261412
RWRCLE
OHIO REGIONAL WEATHER ROUNDUP
NATIONAL WEATHER SERVICE WILMINGTON, OH
1000 AM EDT SUN MAY 26 2019

NOTE: "FAIR" INDICATES FEW OR NO CLOUDS BELOW 12,000 FEET WITH NO
SIGNIFICANT WEATHER AND/OR OBSTRUCTIONS TO VISIBILITY.


OHZ036-037-039>041-045>050-054>059-063>069-073>076-082>088-261500-
  CENTRAL AND SOUTHEAST OHIO
  
CITY           SKY/WX    TMP DP  RH WIND       PRES   REMARKS
COLUMBUS       PTSUNNY   69  63  81 CALM      30.08S                  
OSU AIRPORT    PTSUNNY   68  65  90 E7        30.07S                  
BOLTON FIELD   PTSUNNY   68  64  88 CALM      30.09F                  
RICKENBACK AFB PTSUNNY   67  63  87 CALM      30.09S                  
NEWARK         CLOUDY    68  63  84 W3        30.10S                  
MARION         PTSUNNY   67  64  90 S7        30.06F                  
LANCASTER      CLOUDY    69  65  86 E5        30.09F                  
ZANESVILLE     FAIR      70  64  81 W5        30.08R                  
NEW PHILLY     CLOUDY    67  62  84 CALM      30.09F                  
$$
  

SKY/WX - Weather  TMP - Temperature  DP - Dew Point  RH - Relative Humidity
WIND - Wind Direction/Speed PRES - Barometric Pressure VSB - Visibility
WCI - Wind Chill Index E13G22 Wind - East Wind 13 mph/Gusts of 22 mph